EW7083 Weather Reports


time (UTC)temp
C
wind
direction
speed
KPH
gust
KPH
rain 1hr
cm
rain 24hr
cm
rain mn
cm
humidity
%
barometer
mb
20260507181024 17 28 4.8 6.4 0.00 0.03 0.00 100 560.1
20260507180024 17 6 3.2 8.0 0.00 0.03 0.00 100 560.1
20260507175026 16 203 0.0 0.0 0.00 0.03 0.00 100 560.1
20260507174125 16 311 3.2 6.4 0.00 0.03 0.00 100 560.1
20260507173125 17 11 3.2 9.7 0.00 0.03 0.00 100 560.1
20260507172125 17 247 1.6 6.4 0.00 0.03 0.00 100 560.1
20260507170224 15 47 6.4 11.3 0.00 0.03 0.00 100 560.1
20260507164325 16 23 3.2 9.7 0.00 0.03 0.00 100 560.1
20260507163326 16 10 1.6 8.0 0.00 0.03 0.00 100 560.1
20260507162326 15 42 1.6 4.8 0.00 0.03 0.00 100 560.1
20260507161424 15 27 6.4 12.9 0.00 0.03 0.00 100 560.1
20260507155525 15 29 3.2 6.4 0.00 0.03 0.00 100 560.1
20260507153523 14 320 1.6 8.0 0.00 0.03 0.00 100 560.1
20260507152523 15 37 6.4 9.7 0.00 0.03 0.00 100 560.1
20260507151524 15 1 0.0 0.0 0.00 0.03 0.00 100 560.1
20260507150525 14 360 0.0 0.0 0.00 0.03 0.00 100 560.1
20260507150425 15 1 0.0 0.0 0.00 0.03 0.00 100 560.1
20260507145425 14 43 6.4 9.7 0.00 0.03 0.00 100 560.1
20260507144425 14 315 3.2 4.8 0.00 0.03 0.00 100 560.1
20260507143522 13 90 4.8 6.4 0.00 0.03 0.00 100 560.1
20260507142523 -17 0 0.0 0.0 0.00 0.03 0.00 100
20260507142424 -17 0 0.0 0.0 0.00 0.03 0.00 100
20260507141510 12 337 0.0 0.0 0.00 0.03 0.00 100 560.1
20260507140511 12 337 0.0 0.0 0.00 0.03 0.00 100 560.1
20260507135513 12 337 0.0 0.0 0.00 0.03 0.00 100 560.1
20260507134609 12 334 3.2 4.8 0.00 0.03 0.00 100 560.1
20260507133611 12 317 0.0 3.2 0.00 0.03 0.00 100 560.1
20260507132611 12 22 0.0 0.0 0.00 0.03 0.00 100 560.1
20260507131709 11 337 1.6 3.2 0.00 0.03 0.00 100 560.1
20260507130710 12 317 1.6 6.4 0.00 0.03 0.00 100 560.1
20260507124711 11 22 8.0 9.7 0.00 0.03 0.00 100 560.1
20260507115811 -17 0 0.0 0.0 0.00 0.05 0.00 100
20260507114811 11 315 0.0 0.0 0.00 0.05 0.00 100 560.1
20260507113812 11 315 0.0 0.0 0.00 0.05 0.00 100 560.1
20260507112812 -17 0 0.0 0.0 0.00 0.05 0.00 100
20260507111910 -17 0 0.0 0.0 0.00 0.05 0.00 100
20260507103910 -17 0 0.0 0.0 0.00 0.05 0.00 100
20260507102913 -17 0 0.0 0.0 0.00 0.05 0.00 100
20260507100012 -17 0 0.0 0.0 0.00 0.05 0.00 100
20260507095012 -17 0 0.0 0.0 0.00 0.05 0.00 100
20260507094012 -17 0 0.0 0.0 0.00 0.05 0.00 100
20260507093110 -17 0 0.0 0.0 0.00 0.05 0.00 100
20260507093025 -17 0 0.0 0.0 0.00 0.05 0.00 100
20260507091026 11 22 0.0 0.0 0.00 0.05 0.00 100 560.1
20260507090025 12 337 0.0 0.0 0.00 0.05 0.00 100 560.1
20260507085026 12 296 0.0 0.0 0.00 0.05 0.00 100 560.1
20260507084026 12 22 0.0 0.0 0.00 0.05 0.00 100 560.1
20260507083026 12 359 0.0 3.2 0.00 0.05 0.00 100 560.1
20260507082025 12 10 1.6 6.4 0.00 0.05 0.00 100 560.1
20260507081125 12 13 0.0 0.0 0.00 0.05 0.00 100 560.1
20260507080124 12 337 0.0 0.0 0.00 0.05 0.00 100 560.1
20260507075224 12 360 0.0 0.0 0.00 0.05 0.00 100 560.1
20260507074240 12 292 0.0 0.0 0.00 0.05 0.00 100 560.1
20260507073324 12 14 1.6 8.0 0.00 0.05 0.00 100 560.1
20260507072325 12 316 0.0 0.0 0.00 0.05 0.00 100 560.1
20260507071326 12 315 0.0 0.0 0.00 0.05 0.00 100 560.1
20260507070327 12 315 0.0 0.0 0.00 0.05 0.00 100 560.1
20260507065325 13 9 0.0 0.0 0.00 0.05 0.00 100 560.1
20260507064326 12 360 0.0 0.0 0.00 0.05 0.00 100 560.1
20260507062427 13 283 0.0 4.8 0.00 0.05 0.00 100 560.1
20260507061426 12 1 0.0 4.8 0.00 0.05 0.00 100 560.1
20260507060426 12 311 1.6 6.4 0.00 0.05 0.00 100 560.1
20260507055524 13 354 0.0 0.0 0.00 0.05 0.00 100 560.1
20260507054526 13 338 0.0 0.0 0.00 0.05 0.00 100 560.1
20260507053526 13 359 0.0 0.0 0.00 0.05 0.00 100 560.1
20260507052525 13 326 0.0 0.0 0.00 0.05 0.00 100 560.1
20260507050527 13 336 1.6 9.7 0.00 0.05 0.00 100 560.1
20260507050424 13 305 0.0 3.2 0.00 0.05 0.00 100 560.1
20260507045425 13 26 0.0 0.0 0.00 0.05 0.00 100 560.1
20260507044442 13 23 1.6 8.0 0.00 0.05 0.00 100 560.1
20260507040425 13 349 0.0 0.0 0.00 0.05 0.00 100 560.1
20260507035513 13 326 3.2 8.0 0.00 0.05 0.05 100 560.1
20260507034611 13 330 0.0 4.8 0.00 0.05 0.05 100 560.1
20260507033612 13 5 0.0 0.0 0.00 0.05 0.05 100 560.1
20260507031610 14 20 0.0 0.0 0.00 0.05 0.05 100 560.1
20260507030612 15 342 0.0 0.0 0.00 0.05 0.05 100 560.1
20260507025712 15 350 0.0 6.4 0.00 0.05 0.05 100 560.1
20260507024712 15 348 0.0 4.8 0.00 0.05 0.05 100 560.1
20260507023712 15 356 1.6 6.4 0.00 0.05 0.05 100 560.1
20260507022710 15 354 4.8 12.9 0.00 0.05 0.05 100 560.1
20260507021810 16 315 0.0 0.0 0.00 0.05 0.05 100 560.1
20260507020810 16 337 0.0 0.0 0.00 0.05 0.05 100 560.1
20260507015828 15 315 3.2 6.4 0.00 0.05 0.05 100 560.1
20260507014911 16 19 0.0 0.0 0.00 0.05 0.05 100 560.1
20260507013911 16 1 0.0 4.8 0.00 0.05 0.05 100 560.1
20260507012911 16 337 0.0 0.0 0.00 0.05 0.05 100 560.1
20260507010912 16 337 0.0 0.0 0.00 0.05 0.05 100 560.1
20260507005911 16 286 0.0 0.0 0.00 0.05 0.05 100 560.1
20260507004912 17 315 0.0 0.0 0.00 0.05 0.05 100 560.1
20260507003911 17 315 0.0 0.0 0.00 0.05 0.05 100 560.1
20260507002912 17 276 0.0 4.8 0.00 0.05 0.05 100 560.1
20260507001912 17 337 0.0 0.0 0.00 0.05 0.05 100 560.1
20260507000913 17 330 3.2 8.0 0.00 0.05 0.05 100 560.1
20260506235912 18 247 0.0 0.0 0.00 0.05 0.05 100 560.1
20260506235010 18 247 0.0 0.0 0.00 0.05 0.05 100 560.1
20260506234013 18 247 0.0 0.0 0.00 0.05 0.05 100 560.1
20260506233110 18 279 0.0 0.0 0.00 0.05 0.05 100 560.1
20260506232111 18 42 0.0 3.2 0.00 0.05 0.05 100 560.1
20260506231111 18 19 1.6 8.0 0.00 0.05 0.05 100 560.1
20260506230111 19 64 4.8 11.3 0.00 0.05 0.05 100 560.1
20260506223210 20 350 1.6 4.8 0.00 0.05 0.05 100 560.1
20260506222211 20 360 0.0 0.0 0.00 0.05 0.05 100 560.1
20260506221311 21 202 0.0 0.0 0.00 0.05 0.05 100 560.1
20260506220312 20 202 0.0 0.0 0.00 0.05 0.05 100 560.1
20260506214313 20 202 0.0 0.0 0.00 0.05 0.05 25 560.1
20260506213311 20 202 0.0 0.0 0.00 0.05 0.05 33 560.1
20260506212310 20 202 0.0 0.0 0.00 0.05 0.05 35 560.1
20260506211314 20 202 0.0 0.0 0.00 0.05 0.05 37 560.1
20260506210411 19 202 0.0 0.0 0.00 0.05 0.05 36 560.1
20260506205510 19 202 0.0 0.0 0.00 0.05 0.05 39 560.1
20260506204513 18 202 0.0 0.0 0.00 0.05 0.05 41 560.1
20260506203511 18 202 0.0 0.0 0.00 0.05 0.05 27 560.1
20260506202610 18 202 0.0 0.0 0.00 0.05 0.05 25 560.1
20260506201613 18 202 0.0 0.0 0.00 0.05 0.05 1 560.1
20260506200711 19 202 0.0 0.0 0.00 0.05 0.05 100 560.1
20260506195712 20 202 0.0 0.0 0.00 0.05 0.05 100 560.1
20260506194713 20 234 0.0 4.8 0.03 0.05 0.05 100 560.1
20260506193810 19 187 6.4 8.0 0.03 0.05 0.05 100 560.1
20260506191811 21 157 0.0 0.0 0.03 0.05 0.05 100 560.1
20260506190812 21 202 0.0 4.8 0.03 0.05 0.05 100 560.1
20260506185812 20 180 0.0 1.6 0.03 0.05 0.05 100 560.1
20260506184813 20 156 6.4 9.7 0.00 0.03 0.03 100 560.1
20260506183911 20 168 8.0 12.9 0.00 0.03 0.03 100 560.1
20260506182913 20 153 6.4 11.3 0.00 0.03 0.03 100 560.1
20260506181912 19 179 4.8 6.4 0.00 0.03 0.03 100 560.1